Satellite: FALCON
Catalog number: 30776
Epoch time:      09231.92431672
Element set:    0652
Inclination:      035.4338 deg
RA of node:       072.6944 deg
Eccentricity:    0.0000289
Arg of perigee:   009.2112 deg
Mean anomaly:     350.8609 deg
Mean motion:   15.03286615 rev/day
Decay rate:       1.65e-06 rev/day^2
Epoch rev:           13469
Checksum:              289

Satellite: MAST
Catalog number: 31126
Epoch time:      09232.74436281
Element set:     665
Inclination:      097.9845 deg
RA of node:       284.5757 deg
Eccentricity:    0.0095817
Arg of perigee:   079.4720 deg
Mean anomaly:     281.7348 deg
Mean motion:   14.53512412 rev/day
Decay rate:        2.1e-07 rev/day^2
Epoch rev:           12441
Checksum:              306

Satellite: CAPE1
Catalog number: 31130
Epoch time:      09232.64019071
Element set:     676
Inclination:      097.9842 deg
RA of node:       282.5180 deg
Eccentricity:    0.0103921
Arg of perigee:   085.7378 deg
Mean anomaly:     275.5662 deg
Mean motion:   14.52080733 rev/day
Decay rate:        8.0e-07 rev/day^2
Epoch rev:           12404
Checksum:              286

Satellite: COMPASS
Catalog number: 32787
Epoch time:      09232.19206445
Element set:     441
Inclination:      097.9378 deg
RA of node:       295.4604 deg
Eccentricity:    0.0015719
Arg of perigee:   180.5276 deg
Mean anomaly:     179.5922 deg
Mean motion:   14.81641096 rev/day
Decay rate:       -6.3e-07 rev/day^2
Epoch rev:            7092
Checksum:              321

Satellite: AAUSAT2
Catalog number: 32788
Epoch time:      09231.74943570
Element set:     436
Inclination:      097.9344 deg
RA of node:       295.0885 deg
Eccentricity:    0.0015013
Arg of perigee:   183.1715 deg
Mean anomaly:     176.9396 deg
Mean motion:   14.81765523 rev/day
Decay rate:       1.04e-06 rev/day^2
Epoch rev:            7086
Checksum:              324

Satellite: DO-64
Catalog number: 32789
Epoch time:      09231.77131545
Element set:    0456
Inclination:      097.9408 deg
RA of node:       295.3160 deg
Eccentricity:    0.0015441
Arg of perigee:   181.3068 deg
Mean anomaly:     178.8104 deg
Mean motion:   14.81770310 rev/day
Decay rate:       3.58e-06 rev/day^2
Epoch rev:           07086
Checksum:              315

Satellite: CO-66
Catalog number: 32791
Epoch time:      09232.17482218
Element set:     433
Inclination:      097.9392 deg
RA of node:       295.4757 deg
Eccentricity:    0.0015908
Arg of perigee:   178.9116 deg
Mean anomaly:     181.2132 deg
Mean motion:   14.81466762 rev/day
Decay rate:        7.1e-07 rev/day^2
Epoch rev:            7088
Checksum:              332

Satellite: RS-30
Catalog number: 32953
Epoch time:      09232.50099964
Element set:     384
Inclination:      082.4983 deg
RA of node:       216.6151 deg
Eccentricity:    0.0020404
Arg of perigee:   041.3534 deg
Mean anomaly:     318.9095 deg
Mean motion:   12.43002856 rev/day
Decay rate:        1.0e-07 rev/day^2
Epoch rev:            5638
Checksum:              284

Satellite: TACSAT-3
Catalog number: 35001
Epoch time:      09231.41656502
Element set:    0084
Inclination:      040.4562 deg
RA of node:       222.4849 deg
Eccentricity:    0.0025527
Arg of perigee:   273.2618 deg
Mean anomaly:     086.5276 deg
Mean motion:   15.39046939 rev/day
Decay rate:      1.099e-05 rev/day^2
Epoch rev:           01409
Checksum:              295

Satellite: PHARMSAT
Catalog number: 35002
Epoch time:      09232.34375764
Element set:      75
Inclination:      040.4687 deg
RA of node:       216.3950 deg
Eccentricity:    0.0028517
Arg of perigee:   283.7835 deg
Mean anomaly:     075.9807 deg
Mean motion:   15.39807842 rev/day
Decay rate:      1.187e-05 rev/day^2
Epoch rev:            1423
Checksum:              309

Satellite: HAWKSAT1
Catalog number: 35003
Epoch time:      09231.99002980
Element set:    0083
Inclination:      040.4617 deg
RA of node:       218.0382 deg
Eccentricity:    0.0029139
Arg of perigee:   284.8661 deg
Mean anomaly:     074.8963 deg
Mean motion:   15.40431962 rev/day
Decay rate:      2.364e-05 rev/day^2
Epoch rev:           01419
Checksum:              290

Satellite: CP6
Catalog number: 35004
Epoch time:      09231.98981753
Element set:    0078
Inclination:      040.4626 deg
RA of node:       218.0421 deg
Eccentricity:    0.0028675
Arg of perigee:   284.1216 deg
Mean anomaly:     075.6437 deg
Mean motion:   15.40465550 rev/day
Decay rate:      2.637e-05 rev/day^2
Epoch rev:           01418
Checksum:              297

Satellite: AEROCUB3
Catalog number: 35005
Epoch time:      09232.84352155
Element set:      73
Inclination:      040.4735 deg
RA of node:       213.1770 deg
Eccentricity:    0.0028443
Arg of perigee:   288.8659 deg
Mean anomaly:     070.9077 deg
Mean motion:   15.40277680 rev/day
Decay rate:      2.552e-05 rev/day^2
Epoch rev:            1431
Checksum:              287

Satellite: DRAGNSAT
Catalog number: 35690
Epoch time:      09231.75633162
Element set:      21
Inclination:      051.6420 deg
RA of node:       339.3593 deg
Eccentricity:    0.0003883
Arg of perigee:   141.8958 deg
Mean anomaly:     218.2323 deg
Mean motion:   15.81216048 rev/day
Decay rate:     1.6394e-04 rev/day^2
Epoch rev:             320
Checksum:              277

